TimeEST,TemperatureF,Dew PointF,Humidity,Sea Level PressureIn,VisibilityMPH,Wind Direction,Wind SpeedMPH,Gust SpeedMPH,PrecipitationIn,Events,Conditions,WindDirDegrees,DateUTC
12:55 AM,27.5,22.3,81,30.40,10.0,Calm,Calm,-,N/A,,Partly Cloudy,0,2013-03-08 05:55:00
1:55 AM,26.6,22.8,86,30.41,10.0,Calm,Calm,-,N/A,,Clear,0,2013-03-08 06:55:00
2:55 AM,25.3,20.8,83,30.41,10.0,Calm,Calm,-,N/A,,Clear,0,2013-03-08 07:55:00
3:55 AM,24.4,20.7,86,30.41,10.0,NNE,3.5,-,N/A,,Clear,20,2013-03-08 08:55:00
4:55 AM,22.8,17.6,80,30.43,10.0,North,3.5,-,N/A,,Clear,350,2013-03-08 09:55:00
5:55 AM,25.3,19.4,78,30.45,10.0,North,3.5,-,N/A,,Clear,360,2013-03-08 10:55:00
6:55 AM,22.1,18.3,85,30.48,10.0,Calm,Calm,-,N/A,,Clear,0,2013-03-08 11:55:00
7:55 AM,23.4,19.8,86,30.50,10.0,Calm,Calm,-,N/A,,Clear,0,2013-03-08 12:55:00
8:55 AM,30.0,23.2,76,30.49,10.0,NE,5.8,-,N/A,,Partly Cloudy,40,2013-03-08 13:55:00
9:55 AM,33.3,19.4,57,30.49,10.0,NE,8.1,-,N/A,,Partly Cloudy,50,2013-03-08 14:55:00
10:55 AM,34.3,17.6,50,30.50,10.0,NNE,8.1,-,N/A,,Partly Cloudy,20,2013-03-08 15:55:00
11:55 AM,36.0,19.2,51,30.50,10.0,NNE,8.1,-,N/A,,Partly Cloudy,30,2013-03-08 16:55:00
12:55 PM,37.4,20.5,51,30.49,10.0,NE,9.2,-,N/A,,Partly Cloudy,50,2013-03-08 17:55:00
1:55 PM,38.7,21.2,50,30.46,10.0,NNE,4.6,-,N/A,,Partly Cloudy,30,2013-03-08 18:55:00
2:55 PM,39.9,20.3,45,30.46,10.0,Calm,Calm,-,N/A,,Partly Cloudy,0,2013-03-08 19:55:00
3:55 PM,40.6,21.4,46,30.45,10.0,Variable,4.6,-,N/A,,Partly Cloudy,0,2013-03-08 20:55:00
4:55 PM,41.2,21.2,45,30.43,10.0,NNE,5.8,-,N/A,,Partly Cloudy,30,2013-03-08 21:55:00
5:55 PM,39.7,22.1,49,30.42,10.0,ENE,8.1,-,N/A,,Partly Cloudy,60,2013-03-08 22:55:00
6:55 PM,36.7,22.8,57,30.43,10.0,NNE,3.5,-,N/A,,Scattered Clouds,20,2013-03-08 23:55:00
7:55 PM,31.8,22.3,68,30.44,10.0,NNE,4.6,-,N/A,,Scattered Clouds,30,2013-03-09 00:55:00
8:55 PM,32.7,22.6,66,30.44,10.0,Calm,Calm,-,N/A,,Clear,0,2013-03-09 01:55:00
9:55 PM,28.9,22.6,77,30.44,10.0,Calm,Calm,-,N/A,,Clear,0,2013-03-09 02:55:00
10:55 PM,27.9,23.0,82,30.43,10.0,NNE,4.6,-,N/A,,Clear,30,2013-03-09 03:55:00
11:55 PM,29.8,25.2,83,30.41,10.0,Calm,Calm,-,N/A,,Partly Cloudy,0,2013-03-09 04:55:00